Погода в Вяземском

Россия / Хабаровский край     47°32′07″N   134°45′19″E
темп.,
°C
ветер,
м/с
пор.,
м/с
влажн.,
%
обл.,
%
осадки,
мм/ч
давл.,
гПа
погр.,
м
8 августа, пн
пн801:00+20юв2497100 1.8 1000147
04:00+19ююв359759 2.2 998151
07:00+20ю2897100 1.6 997395
10:00+23юз479133 4.1 997609
13:00+23зюз699035 5.1 996811
16:00+25зсз69690 6.3 9971469
19:00+22зюз49720 0.0 999527
22:00+18ююз37740 0.0 999107
9 августа, вт
вт901:00+16юз37788 0.0 1000123
04:00+15юз368121 0.0 1000114
07:00+15ююз378012 0.0 1000167
10:00+22юз59570 0.0 999890
13:00+25юз511473 0.0 9982897
16:00+24зюз5115298 0.0 9971772
19:00+22юз61358100 0.0 997730
22:00+17ююз5148520 0.7 997335
10 августа, ср
ср1001:00+16ююз488049 0.0 998171
04:00+15ююз38795 0.0 998128
07:00+16ююв368284 0.0 997116
10:00+21юз6106572 0.3 997972
13:00+22зюз5117096 0.8 9971632
16:00+22з7126427 1.9 9971586
19:00+19сз258362 0.5 998150
22:00+15зсз238365 0.6 100073
11 августа, чт
чт1101:00+15з388397 0.0 1000429
04:00+12ююз35940 0.3 1001119
07:00+13ююз24930 0.0 1002129
10:00+18зюз3567100 0.0 1001806
13:00+15ююз3688100 0.4 1002344
16:00+20зюз356410 0.4 10011157
19:00+19зсз2276100 0.1 100143
22:00+15ююз22870 0.1 100213
12 августа, пт
пт1201:00+14ю22866 0.0 100227
04:00+14ю228551 0.0 100221
07:00+15ююв1183100 0.0 100318
10:00+21з236612 0.2 1003622
13:00+21зюз23759 3.1 1003623
16:00+23зюз235625 3.6 10021568
19:00+20зсз1181100 1.3 100311
22:00+16ююв22896 1.5 100416